Weather History for PFYU - May, 2013

Change the Weather History Date:

Thursday, May 2, 2013

  Actual Average Record
Temperature  
Mean Temperature 14 °F -  
Max Temperature 24 °F 41 °F 60 °F (2014)
Min Temperature 5 °F 23 °F 5 °F (2013)
Degree Days  
Heating Degree Days 50    
Moisture  
Dew Point 1 °F    
Average Humidity 55    
Maximum Humidity 73    
Minimum Humidity 31    
Precipitation  
Precipitation 0.00 in - - ()
Sea Level Pressure  
Sea Level Pressure 29.96 in    
Wind  
Wind Speed 10 mph (NE)    
Max Wind Speed 14 mph    
Max Gust Speed 22 mph    
Visibility 10 miles    
Events      
Averages and records for this station are not official NWS values.
T = Trace of Precipitation, MM = Missing Value Source: NWS Daily Summary

Daily Weather History Graph

Daily Weather History Graph

Search for Another Location

Airport or City:

Trip Planner

Search our weather history database for the weather conditions in past years. The results will help you decide how hot, cold, wet, or windy it might be!

Date:

Astronomy

May. 02, 2013 Rise Set
Actual Time 4:47 AM AKDT 10:31 PM AKDT
Civil Twilight 3:14 AM AKDT 12:08 AM AKDT
Nautical Twilight Sun does not set Sun does not set
Astronomical Twilight Sun does not set Sun does not set
Moon 3:51 AM AKDT (5/2) 12:27 PM AKDT (5/2)
Length of Visible Light 20h 53m
Length of Day
17h 44m
Last Quarter, 46% of the Moon is Illuminated
May 2
Last Quarter
May 9
New
May 17
First Quarter
May 24
Full
May 31
Last Quarter

Hourly Weather History & Observations

Time (AKDT) Temp. Windchill Dew Point Humidity Pressure Visibility Wind Dir Wind Speed Gust Speed Precip Events Conditions
12:16 AM 10.4 °F -3.3 °F -0.4 °F 62% 29.86 in 10.0 mi NE 10.4 mph 21.9 mph N/A   Overcast
12:36 AM 10.4 °F -3.3 °F -0.4 °F 62% 29.87 in 10.0 mi NE 10.4 mph - N/A   Overcast
12:56 AM 10.4 °F -4.1 °F -2.2 °F 57% 29.87 in 10.0 mi NE 11.5 mph 17.3 mph N/A   Overcast
1:16 AM 8.6 °F -7.7 °F -0.4 °F 67% 29.87 in 10.0 mi NE 13.8 mph 17.3 mph N/A   Overcast
1:36 AM 8.6 °F -6.3 °F 1.4 °F 73% 29.87 in 10.0 mi NNE 11.5 mph 21.9 mph N/A   Overcast
1:56 AM 8.6 °F -7.7 °F -0.4 °F 67% 29.88 in 9.0 mi NE 13.8 mph - N/A   Overcast
2:16 AM 8.6 °F -5.5 °F 1.4 °F 73% 29.88 in 8.0 mi NE 10.4 mph - N/A   Overcast
2:36 AM 8.6 °F -4.7 °F -0.4 °F 67% 29.89 in 7.0 mi NE 9.2 mph - N/A   Overcast
2:56 AM 6.8 °F -7.8 °F -2.2 °F 67% 29.89 in 10.0 mi NNE 10.4 mph 17.3 mph N/A   Overcast
3:16 AM 6.8 °F -6.9 °F -2.2 °F 67% 29.89 in 6.0 mi NE 9.2 mph - N/A   Overcast
3:36 AM 6.8 °F -8.6 °F -2.2 °F 67% 29.89 in 10.0 mi NE 11.5 mph - N/A   Overcast
3:56 AM 6.8 °F -5.9 °F -4.0 °F 61% 29.90 in 10.0 mi NNE 8.1 mph - N/A   Overcast
4:16 AM 6.8 °F -3.5 °F -5.8 °F 56% 29.90 in 10.0 mi NNE 5.8 mph - N/A   Overcast
4:36 AM 5.0 °F -8.1 °F -4.0 °F 66% 29.90 in 10.0 mi NNE 8.1 mph - N/A   Mostly Cloudy
4:56 AM 5.0 °F -6.9 °F -4.0 °F 66% 29.90 in 9.0 mi NNE 6.9 mph - N/A   Mostly Cloudy
5:16 AM 5.0 °F -6.9 °F -4.0 °F 66% 29.90 in 10.0 mi NNE 6.9 mph - N/A   Mostly Cloudy
5:36 AM 5.0 °F -8.1 °F -5.8 °F 61% 29.90 in 10.0 mi NNE 8.1 mph - N/A   Overcast
5:56 AM 5.0 °F -9.1 °F -4.0 °F 66% 29.91 in 10.0 mi NNE 9.2 mph - N/A   Overcast
6:16 AM 5.0 °F -9.1 °F -5.8 °F 61% 29.91 in 10.0 mi NNE 9.2 mph - N/A   Overcast
6:36 AM 5.0 °F -9.1 °F -4.0 °F 66% 29.92 in 10.0 mi NE 9.2 mph - N/A   Overcast
6:56 AM 6.8 °F -6.9 °F -5.8 °F 56% 29.92 in 10.0 mi NE 9.2 mph - N/A   Overcast
7:16 AM 6.8 °F -6.9 °F -2.2 °F 67% 29.93 in 10.0 mi NE 9.2 mph - N/A   Overcast
7:36 AM 6.8 °F -6.9 °F -4.0 °F 61% 29.93 in 10.0 mi NNE 9.2 mph - N/A   Overcast
7:56 AM 6.8 °F -7.8 °F -4.0 °F 61% 29.93 in 10.0 mi NE 10.4 mph - N/A   Mostly Cloudy
8:16 AM 6.8 °F -4.8 °F -4.0 °F 61% 29.93 in 10.0 mi NE 6.9 mph - N/A   Scattered Clouds
8:36 AM 6.8 °F -8.6 °F -2.2 °F 67% 29.94 in 10.0 mi NE 11.5 mph - N/A   Scattered Clouds
8:56 AM 8.6 °F -6.3 °F -2.2 °F 62% 29.95 in 10.0 mi NE 11.5 mph - N/A   Partly Cloudy
9:16 AM 8.6 °F -5.5 °F -0.4 °F 67% 29.95 in 10.0 mi NE 10.4 mph - N/A   Partly Cloudy
9:36 AM 8.6 °F -4.7 °F -0.4 °F 67% 29.95 in 10.0 mi NE 9.2 mph - N/A   Partly Cloudy
9:56 AM 10.4 °F -1.5 °F -0.4 °F 62% 29.95 in 10.0 mi NNE 8.1 mph - N/A   Scattered Clouds
10:16 AM 10.4 °F -3.3 °F -0.4 °F 62% 29.96 in 10.0 mi NNE 10.4 mph - N/A   Scattered Clouds
10:36 AM 10.4 °F -2.4 °F -0.4 °F 62% 29.96 in 10.0 mi NNE 9.2 mph - N/A   Partly Cloudy
10:56 AM 12.2 °F -0.2 °F 1.4 °F 62% 29.97 in 10.0 mi NE 9.2 mph - N/A   Partly Cloudy
11:16 AM 12.2 °F -0.2 °F -0.4 °F 57% 29.97 in 10.0 mi NE 9.2 mph - N/A   Partly Cloudy
11:36 AM 14.0 °F 0.5 °F 1.4 °F 57% 29.97 in 10.0 mi NE 11.5 mph - N/A   Partly Cloudy
11:56 AM 15.8 °F 3.4 °F 1.4 °F 53% 29.97 in 10.0 mi ENE 10.4 mph - N/A   Partly Cloudy
12:16 PM 15.8 °F 4.2 °F 1.4 °F 53% 29.97 in 10.0 mi ENE 9.2 mph - N/A   Partly Cloudy
12:36 PM 15.8 °F 6.1 °F 1.4 °F 53% 29.97 in 10.0 mi ENE 6.9 mph - N/A   Partly Cloudy
12:56 PM 17.6 °F 8.2 °F 1.4 °F 49% 29.98 in 10.0 mi NE 6.9 mph - N/A   Clear
1:16 PM 17.6 °F 5.7 °F 1.4 °F 49% 29.98 in 10.0 mi NNE 10.4 mph - N/A   Clear
1:56 PM 19.4 °F 10.4 °F 3.2 °F 49% 29.99 in 10.0 mi NNE 6.9 mph - N/A   Clear
2:16 PM 19.4 °F 10.4 °F 3.2 °F 49% 29.99 in 10.0 mi NE 6.9 mph - N/A   Clear
2:36 PM 19.4 °F 7.9 °F 5.0 °F 54% 29.99 in 10.0 mi NE 10.4 mph - N/A   Clear
2:56 PM 21.2 °F 10.1 °F 5.0 °F 50% 30.00 in 10.0 mi NE 10.4 mph - N/A   Clear
3:16 PM 21.2 °F 11.7 °F 3.2 °F 46% 30.00 in 10.0 mi NNE 8.1 mph - N/A   Clear
3:36 PM 21.2 °F 12.6 °F 3.2 °F 46% 29.99 in 10.0 mi NE 6.9 mph - N/A   Clear
3:56 PM 21.2 °F 10.9 °F 5.0 °F 50% 29.99 in 10.0 mi NE 9.2 mph - N/A   Clear
4:16 PM 21.2 °F 11.7 °F 3.2 °F 46% 29.99 in 10.0 mi NNE 8.1 mph - N/A   Clear
4:36 PM 23.0 °F 14.7 °F 5.0 °F 46% 29.99 in 10.0 mi NE 6.9 mph - N/A   Clear
4:56 PM 23.0 °F 13.9 °F 5.0 °F 46% 29.99 in 10.0 mi NE 8.1 mph - N/A   Clear
5:16 PM 23.0 °F 12.4 °F 5.0 °F 46% 29.99 in 10.0 mi NE 10.4 mph - N/A   Partly Cloudy
5:56 PM 24.8 °F 16.9 °F 6.8 °F 46% 30.00 in 10.0 mi ENE 6.9 mph - N/A   Partly Cloudy
6:16 PM 24.8 °F 16.1 °F 3.2 °F 40% 29.99 in 10.0 mi NNE 8.1 mph - N/A   Clear
6:36 PM 24.8 °F 16.1 °F 6.8 °F 46% 29.99 in 10.0 mi North 8.1 mph - N/A   Clear
6:56 PM 24.8 °F 16.1 °F 6.8 °F 46% 29.99 in 10.0 mi NE 8.1 mph - N/A   Clear
7:16 PM 24.8 °F 16.9 °F 5.0 °F 43% 30.00 in 10.0 mi NE 6.9 mph - N/A   Clear
7:36 PM 24.8 °F 14.6 °F 6.8 °F 46% 30.00 in 10.0 mi NE 10.4 mph - N/A   Clear
7:56 PM 24.8 °F 15.3 °F 6.8 °F 46% 30.00 in 10.0 mi NE 9.2 mph - N/A   Clear
8:16 PM 24.8 °F 16.1 °F 5.0 °F 43% 30.00 in 10.0 mi NE 8.1 mph - N/A   Clear
8:36 PM 23.0 °F 13.1 °F 5.0 °F 46% 30.01 in 10.0 mi NE 9.2 mph - N/A   Clear
8:56 PM 23.0 °F 13.1 °F 5.0 °F 46% 30.01 in 10.0 mi NE 9.2 mph - N/A   Clear
9:16 PM 23.0 °F 13.1 °F 5.0 °F 46% 30.02 in 10.0 mi NE 9.2 mph - N/A   Clear
9:36 PM 21.2 °F 10.9 °F 5.0 °F 50% 30.02 in 10.0 mi NE 9.2 mph - N/A   Clear
9:56 PM 21.2 °F 11.7 °F 3.2 °F 46% 30.02 in 10.0 mi NE 8.1 mph - N/A   Clear
10:16 PM 19.4 °F 7.9 °F 3.2 °F 49% 30.03 in 10.0 mi NE 10.4 mph - N/A   Clear
10:36 PM 19.4 °F 7.9 °F 3.2 °F 49% 30.03 in 10.0 mi NE 10.4 mph 16.1 mph N/A   Clear
10:56 PM 17.6 °F 5.0 °F 3.2 °F 53% 30.04 in 10.0 mi NE 11.5 mph - N/A   Clear
11:16 PM 17.6 °F 6.4 °F 3.2 °F 53% 30.05 in 10.0 mi NE 9.2 mph - N/A   Clear
11:36 PM 15.8 °F 5.1 °F 1.4 °F 53% 30.05 in 10.0 mi NE 8.1 mph - N/A   Clear
11:56 PM 15.8 °F 5.1 °F 1.4 °F 53% 30.06 in 10.0 mi NE 8.1 mph - N/A   Clear